• In Slovakia
  • List of Countries
  • For 7 days
  • Water Temperature
  • Satellite Maps
  • Weather Map
  • Weather Widgets
  • user-avatar
    Login

    Hourly Weather Ignatowizna

    Today, 22 September, Saturday

    Time Temperature Precipitation Wind Pressure Humidity
    00:00 +19°C° 0 mm 6 mps 737 mmHg 57%
    01:00 +19°C° 0 mm 6 mps 737 mmHg 59%
    02:00 +19°C° 0 mm 5 mps 737 mmHg 65%
    03:00 +16°C° 0.5 mm 5 mps 737 mmHg 71%
    04:00 +15°C° 0.5 mm 6 mps 737 mmHg 78%
    05:00 +13°C° 0.5 mm 6 mps 738 mmHg 84%
    06:00 +13°C° 0.3 mm 6 mps 738 mmHg 84%
    07:00 +11°C° 0.3 mm 6 mps 739 mmHg 83%
    08:00 +12°C° 0.3 mm 5 mps 740 mmHg 83%
    09:00 +11°C° 0 mm 6 mps 740 mmHg 79%
    10:00 +11°C° 0 mm 6 mps 741 mmHg 74%
    11:00 +11°C° 0 mm 6 mps 741 mmHg 70%
    12:00 +13°C° 0 mm 6 mps 741 mmHg 65%
    13:00 +14°C° 0 mm 6 mps 741 mmHg 60%
    14:00 +15°C° 0 mm 6 mps 741 mmHg 55%
    15:00 +14°C° 0.2 mm 5 mps 741 mmHg 59%
    16:00 +14°C° 0.2 mm 5 mps 741 mmHg 62%
    17:00 +14°C° 0.2 mm 4 mps 741 mmHg 65%
    18:00 +12°C° 0.2 mm 4 mps 741 mmHg 72%
    19:00 +11°C° 0.2 mm 3 mps 741 mmHg 78%
    20:00 +9°C° 0.2 mm 3 mps 741 mmHg 85%
    21:00 +9°C° 0 mm 3 mps 741 mmHg 85%
    22:00 +9°C° 0 mm 3 mps 741 mmHg 85%
    23:00 +9°C° 0 mm 3 mps 741 mmHg 86%

    Tomorrow, 23 September, Sunday

    Time Temperature Precipitation Wind Pressure Humidity
    00:00 +8°C° 0 mm 4 mps 741 mmHg 85%
    01:00 +7°C° 0 mm 4 mps 741 mmHg 85%
    02:00 +7°C° 0 mm 4 mps 741 mmHg 85%
    03:00 +7°C° 0.1 mm 4 mps 741 mmHg 84%
    04:00 +7°C° 0.1 mm 4 mps 741 mmHg 84%
    05:00 +8°C° 0.1 mm 4 mps 740 mmHg 83%
    06:00 +8°C° 0 mm 5 mps 740 mmHg 82%
    07:00 +8°C° 0 mm 5 mps 740 mmHg 80%
    08:00 +8°C° 0 mm 6 mps 740 mmHg 79%
    09:00 +10°C° 0 mm 6 mps 740 mmHg 72%
    10:00 +11°C° 0 mm 6 mps 740 mmHg 65%
    11:00 +12°C° 0 mm 7 mps 740 mmHg 58%
    12:00 +14°C° 0 mm 7 mps 740 mmHg 56%
    13:00 +14°C° 0 mm 6 mps 740 mmHg 53%
    14:00 +15°C° 0 mm 6 mps 740 mmHg 51%
    15:00 +14°C° 0 mm 5 mps 740 mmHg 53%
    16:00 +14°C° 0 mm 5 mps 740 mmHg 55%
    17:00 +14°C° 0 mm 4 mps 740 mmHg 57%
    18:00 +12°C° 0 mm 3 mps 739 mmHg 62%
    19:00 +11°C° 0 mm 3 mps 739 mmHg 66%
    20:00 +9°C° 0 mm 2 mps 738 mmHg 71%
    21:00 +9°C° 0 mm 2 mps 738 mmHg 71%
    22:00 +9°C° 0 mm 2 mps 738 mmHg 71%
    23:00 +9°C° 0 mm 2 mps 737 mmHg 72%

    Day after tomorrow, 24 September, Monday

    Time Temperature Precipitation Wind Pressure Humidity
    00:00 +9°C° 0.1 mm 2 mps 736 mmHg 74%
    01:00 +10°C° 0.1 mm 1 mps 736 mmHg 77%
    02:00 +9°C° 0.1 mm 1 mps 735 mmHg 80%
    03:00 +9°C° 0.5 mm 1 mps 734 mmHg 81%
    04:00 +9°C° 0.5 mm 1 mps 734 mmHg 82%
    05:00 +8°C° 0.5 mm 2 mps 733 mmHg 84%
    06:00 +8°C° 0.3 mm 2 mps 733 mmHg 85%
    07:00 +8°C° 0.3 mm 3 mps 733 mmHg 86%
    08:00 +8°C° 0.3 mm 3 mps 733 mmHg 87%
    09:00 +8°C° 0.3 mm 4 mps 734 mmHg 82%
    10:00 +9°C° 0.3 mm 5 mps 735 mmHg 78%
    11:00 +10°C° 0.3 mm 5 mps 735 mmHg 73%
    12:00 +11°C° 0.3 mm 6 mps 736 mmHg 69%
    13:00 +11°C° 0.3 mm 6 mps 736 mmHg 65%
    14:00 +13°C° 0.3 mm 6 mps 737 mmHg 61%
    15:00 +11°C° 0.4 mm 6 mps 738 mmHg 65%
    16:00 +10°C° 0.4 mm 6 mps 738 mmHg 70%
    17:00 +9°C° 0.4 mm 6 mps 739 mmHg 74%
    18:00 +8°C° 0.3 mm 6 mps 740 mmHg 77%
    19:00 +7°C° 0.3 mm 6 mps 740 mmHg 80%
    20:00 +5°C° 0.3 mm 6 mps 741 mmHg 83%
    21:00 +5°C° 0 mm 6 mps 742 mmHg 83%
    22:00 +4°C° 0 mm 6 mps 743 mmHg 83%
    23:00 +3°C° 0 mm 5 mps 744 mmHg 84%

    25 September, Tuesday

    Time Temperature Precipitation Wind Pressure Humidity
    00:00 +3°C° 0 mm 5 mps 745 mmHg 83%
    01:00 +3°C° 0 mm 5 mps 745 mmHg 83%
    02:00 +2°C° 0 mm 5 mps 746 mmHg 83%
    03:00 +2°C° 0 mm 5 mps 746 mmHg 83%
    04:00 +2°C° 0 mm 5 mps 747 mmHg 83%
    05:00 +2°C° 0 mm 5 mps 747 mmHg 82%
    06:00 +3°C° 0 mm 5 mps 748 mmHg 80%
    07:00 +5°C° 0 mm 5 mps 748 mmHg 77%
    08:00 +4°C° 0 mm 6 mps 749 mmHg 74%
    09:00 +5°C° 0 mm 6 mps 749 mmHg 68%
    10:00 +8°C° 0 mm 7 mps 750 mmHg 62%
    11:00 +9°C° 0 mm 8 mps 750 mmHg 56%
    12:00 +9°C° 0.2 mm 8 mps 751 mmHg 55%
    13:00 +9°C° 0.2 mm 8 mps 751 mmHg 55%
    14:00 +9°C° 0.2 mm 8 mps 752 mmHg 54%
    15:00 +9°C° 0.1 mm 7 mps 752 mmHg 54%
    16:00 +9°C° 0.1 mm 6 mps 752 mmHg 55%
    17:00 +9°C° 0.1 mm 5 mps 753 mmHg 55%
    18:00 +8°C° 0 mm 4 mps 753 mmHg 59%
    19:00 +6°C° 0 mm 4 mps 753 mmHg 63%
    20:00 +5°C° 0 mm 3 mps 753 mmHg 67%
    21:00 +5°C° 0 mm 4 mps 753 mmHg 70%
    22:00 +5°C° 0 mm 4 mps 753 mmHg 74%
    23:00 +5°C° 0 mm 4 mps 753 mmHg 77%

    26 September, Wednesday

    Time Temperature Precipitation Wind Pressure Humidity
    00:00 +5°C° 0 mm 5 mps 753 mmHg 78%
    01:00 +6°C° 0 mm 5 mps 753 mmHg 79%
    02:00 +5°C° 0 mm 6 mps 753 mmHg 81%
    03:00 +5°C° 0 mm 6 mps 753 mmHg 81%
    04:00 +5°C° 0 mm 6 mps 752 mmHg 81%
    05:00 +7°C° 0 mm 6 mps 752 mmHg 82%
    06:00 +6°C° 0.1 mm 7 mps 752 mmHg 81%
    07:00 +6°C° 0.1 mm 7 mps 751 mmHg 81%
    08:00 +8°C° 0.1 mm 7 mps 751 mmHg 80%
    09:00 +8°C° 0.3 mm 7 mps 751 mmHg 79%
    10:00 +7°C° 0.3 mm 8 mps 751 mmHg 77%
    11:00 +9°C° 0.3 mm 8 mps 750 mmHg 76%
    12:00 +9°C° 0.2 mm 8 mps 750 mmHg 74%
    13:00 +9°C° 0.2 mm 8 mps 749 mmHg 71%
    14:00 +9°C° 0.2 mm 8 mps 749 mmHg 69%
    15:00 +9°C° 0.2 mm 8 mps 748 mmHg 69%
    16:00 +9°C° 0.2 mm 8 mps 748 mmHg 70%
    17:00 +8°C° 0.2 mm 7 mps 747 mmHg 70%
    18:00 +7°C° 0.2 mm 8 mps 747 mmHg 73%
    19:00 +6°C° 0.2 mm 8 mps 746 mmHg 76%
    20:00 +6°C° 0.2 mm 8 mps 746 mmHg 79%
    21:00 +6°C° 0.1 mm 8 mps 745 mmHg 77%
    22:00 +7°C° 0.1 mm 8 mps 745 mmHg 76%
    23:00 +7°C° 0.1 mm 8 mps 744 mmHg 75%

    27 September, Thursday

    Time Temperature Precipitation Wind Pressure Humidity
    00:00 +9°C° 0 mm 8 mps 744 mmHg 75%
    01:00 +9°C° 0 mm 8 mps 744 mmHg 75%
    02:00 +10°C° 0 mm 8 mps 743 mmHg 75%
    03:00 +10°C° 0.2 mm 8 mps 743 mmHg 77%
    04:00 +10°C° 0.2 mm 8 mps 742 mmHg 80%
    05:00 +10°C° 0.2 mm 8 mps 742 mmHg 82%
    06:00 +10°C° 0.5 mm 8 mps 742 mmHg 82%
    07:00 +9°C° 0.5 mm 8 mps 741 mmHg 82%
    08:00 +9°C° 0.5 mm 8 mps 741 mmHg 82%
    09:00 +10°C° 0.2 mm 8 mps 741 mmHg 81%
    10:00 +11°C° 0.2 mm 8 mps 740 mmHg 80%
    11:00 +12°C° 0.2 mm 9 mps 740 mmHg 78%
    12:00 +13°C° 0.1 mm 8 mps 740 mmHg 77%
    13:00 +13°C° 0.1 mm 8 mps 739 mmHg 76%
    14:00 +15°C° 0.1 mm 8 mps 739 mmHg 75%
    15:00 +13°C° 0 mm 8 mps 738 mmHg 77%
    16:00 +13°C° 0 mm 8 mps 738 mmHg 78%
    17:00 +12°C° 0 mm 8 mps 737 mmHg 80%
    18:00 +12°C° 0.1 mm 9 mps 737 mmHg 80%
    19:00 +12°C° 0.1 mm 9 mps 737 mmHg 80%
    20:00 +12°C° 0.1 mm 9 mps 736 mmHg 80%
    21:00 +11°C° 0.7 mm 8 mps 736 mmHg 83%
    22:00 +11°C° 0.7 mm 8 mps 736 mmHg 85%
    23:00 +10°C° 0.7 mm 7 mps 737 mmHg 88%
    Show more